Regional Weather Roundup
Issued by NWS

Home | Current Version | Previous Version | Graphics & Text | Print | Product List | Glossary On
Versions: 1 2 3 4 5 6 7 8 9 10 11 12 13 14 15 16 17 18 19 20 21 22 23 24 25 26 27 28 29 30 31 32 33 34 35 36 37 38 39 40 41 42 43 44 45 46 47 48 49 50
436
ASUS43 KIND 201059
RWRIN

WEATHER ROUNDUP FOR INDIANA
NATIONAL WEATHER SERVICE INDIANAPOLIS IN
600 AM EST SAT JAN 20 2018

NOTE: "FAIR" INDICATES FEW OR NO CLOUDS BELOW 12,000 FEET WITH NO
SIGNIFICANT WEATHER AND/OR OBSTRUCTIONS TO VISIBILITY.

* - STATION DOES NOT REPORT WEATHER SUCH AS PRECIPITATION OR FOG.

+ - STATION NOT QUALITY CONTROLLED BY THE NATIONAL WEATHER SERVICE.
    USE DATA WITH CAUTION...ESPECIALLY DEWPOINT AND RELATIVE
    HUMIDITY OBSERVATIONS.

INZ001>003-010>013-019-020-201200-
NORTHWEST INDIANA

CITY           SKY/WX    TMP DP  RH WIND       PRES   REMARKS
GARY /AIRPORT/ MOCLDY    34  27  75 SW14      29.87R WCI  24
KNOX *+        FAIR      32  28  86 SW12      29.89R WCI  23
MONTICELLO +   FAIR      31  24  76 SW12      29.92R WCI  22

$$

LMZ046-743>745-201200-
SOUTHERN LAKE MICHIGAN

STATION/POSITION TIME  TEMP    WIND        PRES    WAVE
                       AIR SEA DIR/SP/G            HT
                 (UTC) (F)     (DEG/KT/KT) (MB)    (FT)
BURNS HARBOR     1040   36     200/ 19/ 28 1011.9R
MICHIGAN CITY    1030   36     200/ 15/ 18   N/A

$$

INZ004-005-014>016-021>024-201200-
NORTH CENTRAL INDIANA

CITY           SKY/WX    TMP DP  RH WIND       PRES   REMARKS
GOSHEN         FAIR      32  24  72 SW16G25   29.89R WCI  21
PERU/GRISSOM   MOCLDY    31  26  81 SW15      29.92R WCI  21
SOUTH BEND     FAIR      31  25  78 SW15      29.87R WCI  20

$$

INZ006>009-017-018-025>027-201200-
NORTHEAST INDIANA

CITY           SKY/WX    TMP DP  RH WIND       PRES   REMARKS
FORT WAYNE     FAIR      33  25  72 SW17      29.92R WCI  22
KENDALLVILLE + FAIR      33  25  73 SW13      29.88R WCI  24

$$

INZ028-029-035-036-043>045-051>053-201200-
WEST CENTRAL INDIANA

CITY           SKY/WX    TMP DP  RH WIND       PRES   REMARKS
GREENCASTLE +  FAIR      32  21  64 SW8       30.00R WCI  25
LAFAYETTE      FAIR      32  25  75 SW9       29.95R WCI  24
TERRE HAUTE    FAIR      32  21  64 S9        30.02R WCI  24

$$

INZ030>032-037>040-046>048-054>057-064-065-201200-
CENTRAL INDIANA

CITY           SKY/WX    TMP DP  RH WIND       PRES   REMARKS
GREENWOOD *+   FAIR      35  23  62 SW10      30.01R WCI  28
INDIANAPOLIS   FAIR      34  24  67 SW15      30.00R WCI  24
-EAGLE CREEK   FAIR      34  22  61 SW10      29.99R WCI  26
MT COMFORT *+  FAIR      32  27  80 SW10      30.00R WCI  24
SHELBYVILLE    FAIR      32  20  61 S10       30.01R WCI  24

$$

INZ033-034-041-042-049-050-058-059-201200-
EAST CENTRAL INDIANA

CITY           SKY/WX    TMP DP  RH WIND       PRES   REMARKS
MUNCIE         FAIR      34  22  61 SW15      29.95R WCI  24
RICHMOND +     FAIR      32  23  69 SW15      30.00R WCI  22

$$

INZ060-061-067>069-081>083-085>088-201200-
SOUTHWEST INDIANA

CITY           SKY/WX    TMP DP  RH WIND       PRES   REMARKS
EVANSVILLE     FAIR      34  20  56 SW10      30.10R WCI  26
HUNTINGBURG +  FAIR      34  19  54 S9        30.09R WCI  27

$$

INZ062-063-066-070>080-084-089>092-201200-
SOUTH CENTRAL AND SOUTHEAST INDIANA

CITY           SKY/WX    TMP DP  RH WIND       PRES   REMARKS
BLOOMINGTON    FAIR      35  20  54 SW17      30.03R WCI  25
FRENCH LICK *+ FAIR      36  14  41 SW8G18    30.07R WCI  29
SEYMOUR +      FAIR      36  19  51 SW8       30.07R WCI  29

$$





USA.gov is the U.S. government's official web portal to all federal, state and local government web resources and services.